AL, 05, 1899090300,   , BEST,   0, 132N,  384W,  35,     , TS, , , , , , , , , , , , , ,    UNNAMED
AL, 05, 1899090306,   , BEST,   0, 132N,  402W,  35,     , TS, , , , , , , , , , , , , ,    UNNAMED
AL, 05, 1899090312,   , BEST,   0, 134N,  420W,  35,     , TS, , , , , , , , , , , , , ,    UNNAMED
AL, 05, 1899090318,   , BEST,   0, 138N,  440W,  35,     , TS, , , , , , , , , , , , , ,    UNNAMED
AL, 05, 1899090400,   , BEST,   0, 142N,  458W,  35,     , TS, , , , , , , , , , , , , ,    UNNAMED
AL, 05, 1899090406,   , BEST,   0, 145N,  473W,  35,     , TS, , , , , , , , , , , , , ,    UNNAMED
AL, 05, 1899090412,   , BEST,   0, 147N,  483W,  40,     , TS, , , , , , , , , , , , , ,    UNNAMED
AL, 05, 1899090418,   , BEST,   0, 149N,  490W,  45,     , TS, , , , , , , , , , , , , ,    UNNAMED
AL, 05, 1899090500,   , BEST,   0, 150N,  497W,  50,     , TS, , , , , , , , , , , , , ,    UNNAMED
AL, 05, 1899090506,   , BEST,   0, 151N,  504W,  55,     , TS, , , , , , , , , , , , , ,    UNNAMED
AL, 05, 1899090512,   , BEST,   0, 153N,  511W,  60,     , TS, , , , , , , , , , , , , ,    UNNAMED
AL, 05, 1899090518,   , BEST,   0, 155N,  519W,  65,     , HU, , , , , , , , , , , , , ,    UNNAMED
AL, 05, 1899090600,   , BEST,   0, 158N,  527W,  70,     , HU, , , , , , , , , , , , , ,    UNNAMED
AL, 05, 1899090606,   , BEST,   0, 160N,  534W,  70,     , HU, , , , , , , , , , , , , ,    UNNAMED
AL, 05, 1899090612,   , BEST,   0, 162N,  542W,  70,     , HU, , , , , , , , , , , , , ,    UNNAMED
AL, 05, 1899090618,   , BEST,   0, 164N,  549W,  70,     , HU, , , , , , , , , , , , , ,    UNNAMED
AL, 05, 1899090700,   , BEST,   0, 165N,  554W,  70,     , HU, , , , , , , , , , , , , ,    UNNAMED
AL, 05, 1899090706,   , BEST,   0, 166N,  560W,  75,     , HU, , , , , , , , , , , , , ,    UNNAMED
AL, 05, 1899090712,   , BEST,   0, 168N,  568W,  80,     , HU, , , , , , , , , , , , , ,    UNNAMED
AL, 05, 1899090718,   , BEST,   0, 170N,  577W,  85,     , HU, , , , , , , , , , , , , ,    UNNAMED
AL, 05, 1899090800,   , BEST,   0, 172N,  586W,  85,     , HU, , , , , , , , , , , , , ,    UNNAMED
AL, 05, 1899090806,   , BEST,   0, 173N,  595W,  90,     , HU, , , , , , , , , , , , , ,    UNNAMED
AL, 05, 1899090812,   , BEST,   0, 175N,  605W,  95,     , HU, , , , , , , , , , , , , ,    UNNAMED
AL, 05, 1899090818,   , BEST,   0, 180N,  617W, 100,     , HU, , , , , , , , , , , , , ,    UNNAMED
AL, 05, 1899090900,   , BEST,   0, 184N,  626W, 100,     , HU, , , , , , , , , , , , , ,    UNNAMED
AL, 05, 1899090906,   , BEST,   0, 189N,  636W, 105,     , HU, , , , , , , , , , , , , ,    UNNAMED
AL, 05, 1899090912,   , BEST,   0, 195N,  645W, 105,     , HU, , , , , , , , , , , , , ,    UNNAMED
AL, 05, 1899090918,   , BEST,   0, 200N,  657W, 105,     , HU, , , , , , , , , , , , , ,    UNNAMED
AL, 05, 1899091000,   , BEST,   0, 205N,  668W, 105,     , HU, , , , , , , , , , , , , ,    UNNAMED
AL, 05, 1899091006,   , BEST,   0, 211N,  677W, 105,     , HU, , , , , , , , , , , , , ,    UNNAMED
AL, 05, 1899091012,   , BEST,   0, 217N,  687W, 105,     , HU, , , , , , , , , , , , , ,    UNNAMED
AL, 05, 1899091018,   , BEST,   0, 225N,  694W, 105,     , HU, , , , , , , , , , , , , ,    UNNAMED
AL, 05, 1899091100,   , BEST,   0, 232N,  696W, 105,     , HU, , , , , , , , , , , , , ,    UNNAMED
AL, 05, 1899091106,   , BEST,   0, 242N,  698W, 105,     , HU, , , , , , , , , , , , , ,    UNNAMED
AL, 05, 1899091112,   , BEST,   0, 250N,  700W, 105,     , HU, , , , , , , , , , , , , ,    UNNAMED
AL, 05, 1899091118,   , BEST,   0, 259N,  698W, 105,     , HU, , , , , , , , , , , , , ,    UNNAMED
AL, 05, 1899091200,   , BEST,   0, 269N,  696W, 105,     , HU, , , , , , , , , , , , , ,    UNNAMED
AL, 05, 1899091206,   , BEST,   0, 278N,  690W, 105,     , HU, , , , , , , , , , , , , ,    UNNAMED
AL, 05, 1899091212,   , BEST,   0, 287N,  683W, 105,     , HU, , , , , , , , , , , , , ,    UNNAMED
AL, 05, 1899091218,   , BEST,   0, 298N,  673W, 105,     , HU, , , , , , , , , , , , , ,    UNNAMED
AL, 05, 1899091300,   , BEST,   0, 310N,  660W, 105,     , HU, , , , , , , , , , , , , ,    UNNAMED
AL, 05, 1899091306,   , BEST,   0, 322N,  646W, 105,  939, HU, , , , , , , , , , , , , ,    UNNAMED
AL, 05, 1899091312,   , BEST,   0, 335N,  632W, 105,     , HU, , , , , , , , , , , , , ,    UNNAMED
AL, 05, 1899091318,   , BEST,   0, 349N,  619W, 100,     , HU, , , , , , , , , , , , , ,    UNNAMED
AL, 05, 1899091400,   , BEST,   0, 365N,  605W,  95,     , HU, , , , , , , , , , , , , ,    UNNAMED
AL, 05, 1899091406,   , BEST,   0, 385N,  588W,  90,     , HU, , , , , , , , , , , , , ,    UNNAMED
AL, 05, 1899091412,   , BEST,   0, 405N,  570W,  85,     , HU, , , , , , , , , , , , , ,    UNNAMED
AL, 05, 1899091418,   , BEST,   0, 431N,  551W,  80,     , HU, , , , , , , , , , , , , ,    UNNAMED
AL, 05, 1899091500,   , BEST,   0, 458N,  535W,  75,     , HU, , , , , , , , , , , , , ,    UNNAMED
AL, 05, 1899091506,   , BEST,   0, 489N,  525W,  60,     , EX, , , , , , , , , , , , , ,    UNNAMED
AL, 05, 1899091512,   , BEST,   0, 520N,  525W,  50,     , EX, , , , , , , , , , , , , ,    UNNAMED
AL, 05, 1899091518,   , BEST,   0, 550N,  530W,  40,     , EX, , , , , , , , , , , , , ,    UNNAMED
